This is the latest recevied weather packets stored in our database for station/object WX7FGZ-6. If no packets are shown the sender has not sent any weather packets the latest 10 day(s).
| Time | Temp. | Humidity | Pressure | Rain* | Wind** | Luminosity | Snow |
|---|---|---|---|---|---|---|---|
| 1777967075 | -4.44° C | 64% | 1013.1 hPa | 0 mm | - | - | - |
| 1777966775 | -4.44° C | 67% | 1012.9 hPa | 0 mm | - | - | - |
| 1777966475 | -4.44° C | 68% | 1013.1 hPa | 0 mm | - | - | - |
| 1777966175 | -4.44° C | 70% | 1013.3 hPa | 0 mm | - | - | - |
| 1777965661 | -4.44° C | 71% | 1013.2 hPa | 0 mm | - | - | - |
| 1777965362 | -4.44° C | 70% | 1013.3 hPa | 0 mm | - | - | - |
| 1777965062 | -4.44° C | 70% | 1013.3 hPa | 0 mm | - | - | - |
| 1777964762 | -3.89° C | 71% | 1013.4 hPa | 0 mm | - | - | - |
| 1777964249 | -3.89° C | 70% | 1013.5 hPa | 0 mm | - | - | - |
| 1777963949 | -3.89° C | 70% | 1013.5 hPa | 0 mm | - | - | - |
| 1777963650 | -3.89° C | 73% | 1013.6 hPa | 0 mm | - | - | - |
| 1777963457 | -3.89° C | 76% | 1014.1 hPa | 0 mm | - | - | - |
| 1777963350 | -3.89° C | 76% | 1014.1 hPa | 0 mm | - | - | - |
| 1777962774 | -3.89° C | 80% | 1014.3 hPa | 0 mm | - | - | - |
| 1777962474 | -3.89° C | 82% | 1014.2 hPa | 0 mm | - | - | - |
| 1777962174 | -3.89° C | 82% | 1014.2 hPa | 0 mm | - | - | - |
| 1777961875 | -3.89° C | 82% | 1014.1 hPa | 0 mm | - | - | - |
| 1777961595 | -3.89° C | 82% | 1014.2 hPa | 0 mm | - | - | - |
| 1777961320 | -3.89° C | 82% | 1014.2 hPa | 0 mm | - | - | - |
| 1777961020 | -3.33° C | 82% | 1014.2 hPa | 0 mm | - | - | - |
| 1777960720 | -3.33° C | 82% | 1014.1 hPa | 0 mm | - | - | - |
| 1777960680 | -3.33° C | 80% | 1014.3 hPa | 0 mm | - | - | - |
| 1777960419 | -3.33° C | 80% | 1014.3 hPa | 0 mm | - | - | - |
| 1777960119 | -3.33° C | 78% | 1014.5 hPa | 0 mm | - | - | - |
| 1777959820 | -3.33° C | 76% | 1014.3 hPa | 0 mm | - | - | - |
* Rain latest hour (hover to see other rain measurements)
** Current wind speed in m/s (hover to see current wind gust speed)